Location: Franzen
(48.6167°N, 15.3833°E)
Time: 00:26:52
(UTC+00:00)

Cosmos 2219 - Pass Details

Date: 01 August 2021
Orbit: 834 x 859 km, 71.1° (Epoch: 22 September)

Event Time Altitude Azimuth Distance (km) Brightness Sun altitude
Exits shadow 01:38:22 - 275° (W) 3,265 5.9 -15.1°
Reaches altitude 10° 01:41:34 10° 297° (WNW) 2,501 5.5 -14.8°
Maximum altitude 01:44:33 14° 328° (NNW) 2,218 5.6 -14.5°
Drops below altitude 10° 01:47:32 10° 360° (N) 2,507 6.4 -14.2°
Sets 01:51:20 0° 25° (NNE) 3,446 8.0 -13.8°
